PST,Max TemperatureF,Mean TemperatureF,Min TemperatureF,Max Dew PointF,MeanDew PointF,Min DewpointF,Max Humidity, Mean Humidity, Min Humidity, Max Sea Level PressureIn, Mean Sea Level PressureIn, Min Sea Level PressureIn, Max VisibilityMiles, Mean VisibilityMiles, Min VisibilityMiles, Max Wind SpeedMPH, Mean Wind SpeedMPH, Max Gust SpeedMPH,PrecipitationIn, CloudCover, Events, WindDirDegrees
2012-11-1,82,65,48,34,23,15,36,22,9,29.94,29.88,29.81,10,10,10,18,7,25,0.00,4,,222
2012-11-2,77,61,45,35,28,21,56,33,15,30.01,29.95,29.90,10,10,10,8,3,,0.00,0,,192
2012-11-3,80,61,42,28,23,18,47,27,11,30.13,30.07,30.00,10,10,10,9,4,,0.00,0,,192
2012-11-4,82,62,41,23,20,17,38,23,11,30.23,30.18,30.14,10,10,10,9,4,,0.00,0,,164
2012-11-5,84,64,44,27,21,14,30,20,11,30.22,30.15,30.09,10,10,10,10,5,,0.00,0,,190
2012-11-6,84,64,45,29,26,21,39,25,13,30.17,30.08,30.01,10,10,10,9,3,,0.00,0,,165
2012-11-7,84,64,43,31,27,20,41,25,12,30.04,29.93,29.80,10,10,10,17,4,21,0.00,0,,211
2012-11-8,77,66,54,40,34,31,53,34,19,29.82,29.74,29.66,10,10,10,24,17,31,0.00,2,,203
2012-11-9,57,51,44,35,22,10,54,34,22,29.85,29.76,29.70,10,10,10,28,20,40,0.00,0,,237
2012-11-10,55,45,33,22,16,9,47,31,18,30.17,29.96,29.84,10,10,10,25,12,34,0.00,0,,246
2012-11-11,54,40,25,15,10,6,47,32,20,30.43,30.35,30.18,10,10,10,9,3,,0.00,0,,212
2012-11-12,59,42,25,10,5,-1,45,25,12,30.45,30.36,30.27,10,10,10,9,3,,0.00,0,,212
2012-11-13,66,46,25,6,2,-3,30,19,8,30.32,30.24,30.16,10,10,10,9,2,,0.00,0,,202
2012-11-14,64,46,28,11,6,0,33,21,12,30.25,30.17,30.11,10,10,10,8,3,,0.00,4,,211
2012-11-15,64,52,39,39,16,6,61,25,13,30.17,30.11,30.05,10,10,10,6,2,,0.00,5,,98
2012-11-16,66,56,45,49,38,31,80,52,35,30.09,30.04,29.99,10,10,10,14,5,,0.00,6,Rain,182
2012-11-17,66,57,48,49,46,43,86,71,50,30.06,30.00,29.93,10,10,10,29,10,34,0.00,3,,178
2012-11-18,70,58,45,46,38,34,82,49,27,30.08,30.01,29.96,10,10,10,25,15,33,0.00,0,,203
2012-11-19,66,52,39,38,34,29,73,53,33,30.25,30.18,30.09,10,10,10,8,3,,0.00,0,,181
2012-11-20,70,53,36,37,33,27,76,48,27,30.22,30.12,30.03,10,10,10,13,4,,0.00,1,,178
2012-11-21,71,54,37,33,30,27,68,44,24,30.07,30.02,29.95,10,10,10,7,3,,0.00,3,,258
2012-11-22,71,54,36,34,29,25,68,44,22,30.25,30.18,30.06,10,10,10,9,3,,0.00,0,,182
2012-11-23,73,54,34,26,22,17,57,34,15,30.32,30.25,30.20,10,10,10,8,3,,0.00,0,,214
2012-11-24,73,52,32,20,17,12,44,28,14,30.25,30.13,30.01,10,10,10,9,1,,0.00,0,,220
2012-11-25,71,52,34,21,17,14,46,29,14,30.02,29.96,29.87,10,10,10,8,2,,0.00,0,,215
2012-11-26,71,52,32,19,15,10,43,27,13,30.16,30.08,30.00,10,10,10,10,2,,0.00,0,,221
2012-11-27,68,50,33,20,17,12,42,28,15,30.22,30.15,30.09,10,10,10,8,3,,0.00,4,,241
2012-11-28,70,52,35,46,30,15,69,44,19,30.16,30.07,29.99,10,10,10,28,7,40,0.00,3,,177
2012-11-29,70,62,55,48,44,39,75,54,33,30.07,30.03,29.99,10,10,10,24,20,32,0.00,5,,192
2012-11-30,70,62,55,51,44,39,67,53,36,30.01,29.97,29.92,10,10,10,26,18,40,0.00,3,,187